Location: Sternwarte_Laufen
(47.9344°N, 12.9346°E)
Time: 00:41:31
(UTC+02:00)

ISS - Pass Details

Date: 24 May 2017
Orbit: 402 x 408 km, 51.6° (Epoch: 27 May)

Event Time Altitude Azimuth Distance (km) Brightness Sun altitude
Rises 23:27:37 0° 251° (WSW) 2,328 0.1 -17.7°
Reaches altitude 10° 23:29:42 10° 253° (WSW) 1,468 -0.9 -17.9°
Maximum altitude 23:33:00 75° 339° (NNW) 425 -3.7 -18.1°
Drops below altitude 10° 23:36:17 10° 66° (ENE) 1,470 -1.0 -18.3°
Sets 23:38:23 0° 68° (ENE) 2,331 0.0 -18.4°
